Regional Weather Roundup
Issued by NWS Midland/Odessa, TX

Skip options and go directly to product.
Home | Oldest Version | Previous Version | Current Version | All | Text Only | Save Text | Print | Product List | Glossary On

Skip product version selection by date and time.   
893
ASUS44 KMAF 191410
RWRMAF
MIDLAND AREA WEATHER ROUNDUP
NATIONAL WEATHER SERVICE MIDLAND TX
800 AM CST FRI DEC 19 2014

...IN SOUTHWEST TEXAS AND SOUTHEAST NEW MEXICO...

CITY           SKY/WX    TMP DP  RH WIND       PRES   REMARKS
ALPINE         CLEAR     32  28  86 SW7       30.21R WCI  25
ANDREWS        FOG       38  38 100 SE3       30.16R VSB 3/4
ARTESIA        CLEAR     34  32  93 W8        30.16R WCI  27
BIG SPRING     CLOUDY    43  40  86 NE6       30.19R WCI  40
CARLSBAD       CLEAR     38  32  79 W12       30.14R WCI  30
DRYDEN           N/A     44  36  73 E3        30.11R
FORT STOCKTON  CLEAR     40  32  73 SW9       30.13S WCI  34
GUAD PASS      NOT AVBL
HOBBS          FOG       32  32 100 CALM      30.15R VSB 1/8
MARFA          CLEAR     27  25  93 NW7       30.17R WCI  19
MIDLAND AIRPK  CLOUDY    41  41  99 NE5       30.17R FOG     WCI  38
MIDLAND INTL   CLOUDY    40  39  97 E5        30.16R FOG     WCI  37
ODESSA         CLOUDY    39  38  96 E7        30.16R FOG     WCI  34
PECOS          CLEAR     38  33  79 SW7       30.15R WCI  33
PRESIDIO       FAIR      40  32  74 N5        30.16R WCI  36
SEMINOLE       FOG       36  36  99 CALM      30.17R VSB 1
SNYDER         CLOUDY    38  36  91 E6        30.18R WCI  34
WINK           CLEAR     34  31  88 NE3       30.14R
$$
...OTHER STATIONS IN TEXAS...

CITY           SKY/WX    TMP DP  RH WIND       PRES   REMARKS
ABILENE        CLOUDY    43  42  97 NE6       30.18S FOG     WCI  39
AMARILLO       CLOUDY    36  35  96 NW3       30.15R FOG
AUSTIN         MOCLDY    49  49 100 N15       30.11R
BROWNSVILLE    CLOUDY    67  65  93 CALM      29.97R FOG
CORPUS CHRISTI CLOUDY    68  67  96 CALM      29.97R FOG
DALLAS FTW     CLOUDY    45  44  97 N8        30.17S
DEL RIO        CLOUDY    57  50  77 W6        30.06R
EL PASO        PTCLDY    35  33  92 CALM      30.18R
HOUSTON INT    LGT RAIN  58  57  97 SE9       30.04R
LUBBOCK        CLOUDY    38  37  97 SE9       30.15R FOG     WCI  31
SAN ANGELO     CLOUDY    45  42  89 NE7       30.16R
SAN ANTONIO    DRIZZLE   52  48  86 N13       30.09R FOG
WACO           LGT RAIN  47  45  93 NE8       30.13F FOG
WICHITA FALLS  NOT AVBL
$$
...OTHER LOCATIONS IN NEW MEXICO...

CITY           SKY/WX    TMP DP  RH WIND       PRES   REMARKS
ALAMAGORDO     PTCLDY    34  32  93 S5        30.19R FOG     WCI  30
ALBUQUERQUE    PTCLDY    32  25  75 N5        30.21R WCI  27
CANNON AFB     CLOUDY    36  34  93 W6        30.11R FOG     WCI  31
CLOVIS         CLOUDY    36  34  93 SW9       30.11R WCI  29
HOLLOMAN AFB   PTCLDY    34  33  99 NW6       30.18R WCI  28
ROSWELL        CLEAR     30  27  88 W7        30.13R WCI  23
RUIDOSO        CLEAR     28  23  80 W15       30.15R WCI  17
SANTA FE       PTCLDY    22  19  89 NW5       30.15R WCI  16
TRUTH OR CONSE CLEAR     30  26  85 CALM      30.19R
TUCUMCARI      CLOUDY    35  31  85 N5        30.12R WCI  31
$$

USA.gov is the U.S. government's official web portal to all federal, state and local government web resources and services.